OBJECT M, 62620

Orbit data source: Space-Track

You're viewing an Uncataloged Satellite

Recently launched and/or uncataloged satellites may have evolving metadata. Metadata may include but not limited to: Owner, Maufacturer, Bus, Motor, and Mission.

OBJECT M, 62620 is a satellite in SSO that was launched on Tue, 14 Jan 2025 UTC via an FALCON 9 launch vehicle from the Air Force Western Test Range (AFWTR). Unknown objects in Earth's orbit typically refer to objects detected orbiting the Earth but have not yet been identified or cataloged. These objects could be anything from previously untracked satellites, spent rocket stages, debris from satellite collisions, or even natural meteoroids temporarily captured by Earth's gravity.

Loading next visibility...
Identifier
62620, 2025-009M
Orbit
SSO
Country
Flag of TBDTBD
Related business
None
Manufacturer
Unknown
Mission
Operational Defense Imaging
Bus & Motor
Unknown
Mass
Unknown
Launch date (UTC)
2025-01-14 (1 year ago)
Launch vehicle
FALCON 9
Launch site
Air Force Western Test Range (AFWTR)
Object type
Unknown
Shape & HBR
Box + 2 Pan, 0.2 m
Radar Cross Section
0.121 m², Medium (>0.1 m² and < 1m²)

Expand to show TLE details & history
Last TLE update: 11 hours ago

TLE from 11 hours ago
0 OBJECT M
1 62620U 25009M   26074.50842892  .00058437  00000-0  11183-2 0  9992
2 62620  97.3966 161.4404 0003353 255.7799 104.3079 15.47865381 64907
Epoch: 2026-03-15T12:12Z
TLE epoch observation values (Epoch: 2026-03-15T12:12:08.258Z)
Latitude
-0.00003°
Longitude
165.29175°
Altitude
426.664 km
Speed
7.655 km/s
True Right ascension
10h 45m 45s
True Declination
0° 00' 00"
Sunlit
Object was in full shadow at epoch
Visualization orbit readout
Latitude
Unknown
Longitude
Unknown
Altitude
Unknown
Speed
Unknown
Apparent Right ascension
Unknown
Apparent Declination
Unknown
Sunlit
N/A
Visualization observer readout
Local Sidereal Time
03:51:54
Azimuth
Unknown
Elevation
Unknown
Doppler factor
Unknown
Orbital elements
Apogee altitude
422.179 km
Perigee altitude
417.621 km
Semi-major axis
6,798.037 km
Eccentricity
0.00034
Inclination
97.3966°
RAAN
161.4404°
Arg. of periapsis
255.7799°
True anomaly
104.34513°
Mean anomaly
104.3079°
Eccentric anomaly
104.32651°
Mean motion
3.87229 °/min
Orbital period
92.97 mins
BSTAR
0.0011183
Loading maneuver chart data...
Computing Atmospheric mass density...
Loading historical data...
Loading historical data...
Loading historical data...
Loading historical data...
Loading historical data...
Loading historical data...
Loading historical data...

Documentation

Showing up to 5 results
|